EN

Hourly Weather Travneve

Today, 18 April, Sunday

Time Temperature Precipitation Wind Pressure Humidity
00:00 +5°C° 0 mm 1 mps 736 mmHg 89%
01:00 +4°C° 0 mm 2 mps 736 mmHg 90%
02:00 +3°C° 0 mm 2 mps 736 mmHg 91%
03:00 +3°C° 0 mm 2 mps 735 mmHg 92%
04:00 +3°C° 0 mm 1 mps 735 mmHg 93%
05:00 +3°C° 0 mm 1 mps 735 mmHg 94%
06:00 +4°C° 0 mm 1 mps 735 mmHg 89%
07:00 +5°C° 0 mm 1 mps 736 mmHg 84%
08:00 +7°C° 0 mm 1 mps 736 mmHg 80%
09:00 +7°C° 0 mm 2 mps 735 mmHg 73%
10:00 +9°C° 0 mm 2 mps 735 mmHg 66%
11:00 +10°C° 0 mm 2 mps 735 mmHg 60%
12:00 +12°C° 0 mm 2 mps 735 mmHg 56%
13:00 +12°C° 0 mm 2 mps 735 mmHg 53%
14:00 +13°C° 0 mm 2 mps 735 mmHg 50%
15:00 +13°C° 0 mm 2 mps 735 mmHg 53%
16:00 +13°C° 0 mm 2 mps 735 mmHg 57%
17:00 +12°C° 0 mm 2 mps 734 mmHg 61%
18:00 +10°C° 0 mm 2 mps 735 mmHg 67%
19:00 +10°C° 0 mm 2 mps 735 mmHg 73%
20:00 +10°C° 0 mm 1 mps 735 mmHg 79%
21:00 +10°C° 0 mm 1 mps 735 mmHg 80%
22:00 +9°C° 0 mm 1 mps 735 mmHg 82%
23:00 +9°C° 0 mm 1 mps 735 mmHg 83%

Tomorrow, 19 April, Monday

Time Temperature Precipitation Wind Pressure Humidity
00:00 +9°C° 0 mm 1 mps 735 mmHg 84%
01:00 +9°C° 0 mm 1 mps 734 mmHg 85%
02:00 +9°C° 0 mm 1 mps 734 mmHg 86%
03:00 +9°C° 0.1 mm 1 mps 734 mmHg 88%
04:00 +9°C° 0.1 mm 1 mps 734 mmHg 89%
05:00 +8°C° 0.1 mm 1 mps 734 mmHg 90%
06:00 +7°C° 0.2 mm 2 mps 734 mmHg 90%
07:00 +8°C° 0.2 mm 2 mps 734 mmHg 90%
08:00 +8°C° 0.2 mm 2 mps 734 mmHg 90%
09:00 +8°C° 0.4 mm 2 mps 734 mmHg 89%
10:00 +8°C° 0.4 mm 3 mps 734 mmHg 88%
11:00 +8°C° 0.4 mm 3 mps 734 mmHg 87%
12:00 +8°C° 0.1 mm 3 mps 734 mmHg 84%
13:00 +9°C° 0.1 mm 3 mps 734 mmHg 81%
14:00 +9°C° 0.1 mm 3 mps 734 mmHg 79%
15:00 +10°C° 0 mm 3 mps 733 mmHg 75%
16:00 +10°C° 0 mm 3 mps 733 mmHg 71%
17:00 +11°C° 0 mm 4 mps 733 mmHg 66%
18:00 +10°C° 0 mm 3 mps 733 mmHg 71%
19:00 +9°C° 0 mm 3 mps 733 mmHg 75%
20:00 +8°C° 0 mm 3 mps 733 mmHg 79%
21:00 +7°C° 0 mm 3 mps 732 mmHg 81%
22:00 +5°C° 0 mm 3 mps 732 mmHg 83%
23:00 +4°C° 0 mm 3 mps 732 mmHg 85%

Day after tomorrow, 20 April, Tuesday

Time Temperature Precipitation Wind Pressure Humidity
00:00 +4°C° 0 mm 3 mps 732 mmHg 86%
01:00 +4°C° 0 mm 3 mps 731 mmHg 86%
02:00 +3°C° 0 mm 3 mps 731 mmHg 87%
03:00 +3°C° 0 mm 3 mps 731 mmHg 89%
04:00 +2°C° 0 mm 3 mps 731 mmHg 90%
05:00 +2°C° 0 mm 3 mps 731 mmHg 92%
06:00 +3°C° 0 mm 3 mps 730 mmHg 87%
07:00 +5°C° 0 mm 4 mps 730 mmHg 83%
08:00 +6°C° 0 mm 5 mps 730 mmHg 78%
09:00 +7°C° 0.1 mm 5 mps 730 mmHg 71%
10:00 +8°C° 0.1 mm 5 mps 730 mmHg 64%
11:00 +9°C° 0.1 mm 6 mps 730 mmHg 57%
12:00 +9°C° 0.1 mm 5 mps 730 mmHg 57%
13:00 +9°C° 0.1 mm 5 mps 729 mmHg 56%
14:00 +9°C° 0.1 mm 5 mps 729 mmHg 56%
15:00 +9°C° 0 mm 5 mps 729 mmHg 58%
16:00 +9°C° 0 mm 5 mps 729 mmHg 59%
17:00 +9°C° 0 mm 5 mps 729 mmHg 60%
18:00 +7°C° 0 mm 4 mps 729 mmHg 67%
19:00 +7°C° 0 mm 3 mps 730 mmHg 74%
20:00 +4°C° 0 mm 3 mps 730 mmHg 80%
21:00 +4°C° 0 mm 3 mps 730 mmHg 82%
22:00 +3°C° 0 mm 3 mps 730 mmHg 84%
23:00 +3°C° 0 mm 3 mps 730 mmHg 85%

21 April, Wednesday

Time Temperature Precipitation Wind Pressure Humidity
00:00 +2°C° 0 mm 3 mps 730 mmHg 87%
01:00 +2°C° 0 mm 3 mps 730 mmHg 88%
02:00 +2°C° 0 mm 3 mps 730 mmHg 90%
03:00 +1°C° 0 mm 3 mps 730 mmHg 90%
04:00 +1°C° 0 mm 3 mps 731 mmHg 91%
05:00 +2°C° 0 mm 2 mps 731 mmHg 92%
06:00 +3°C° 0 mm 2 mps 731 mmHg 86%
07:00 +5°C° 0 mm 2 mps 731 mmHg 80%
08:00 +6°C° 0 mm 2 mps 732 mmHg 74%
09:00 +7°C° 0 mm 3 mps 732 mmHg 72%
10:00 +8°C° 0 mm 3 mps 732 mmHg 70%
11:00 +8°C° 0 mm 3 mps 732 mmHg 68%
12:00 +10°C° 0.2 mm 3 mps 732 mmHg 64%
13:00 +11°C° 0.2 mm 4 mps 732 mmHg 60%
14:00 +12°C° 0.2 mm 4 mps 732 mmHg 56%
15:00 +12°C° 0.1 mm 4 mps 732 mmHg 55%
16:00 +12°C° 0.1 mm 3 mps 732 mmHg 55%
17:00 +12°C° 0.1 mm 3 mps 732 mmHg 54%
18:00 +12°C° 0 mm 2 mps 732 mmHg 60%
19:00 +9°C° 0 mm 2 mps 733 mmHg 65%
20:00 +8°C° 0 mm 2 mps 733 mmHg 71%
21:00 +8°C° 0 mm 2 mps 733 mmHg 74%
22:00 +7°C° 0 mm 3 mps 733 mmHg 77%
23:00 +7°C° 0 mm 3 mps 734 mmHg 80%

22 April, Thursday

Time Temperature Precipitation Wind Pressure Humidity
00:00 +7°C° 0 mm 3 mps 734 mmHg 82%
01:00 +5°C° 0 mm 3 mps 734 mmHg 85%
02:00 +5°C° 0 mm 3 mps 734 mmHg 87%
03:00 +5°C° 0 mm 3 mps 734 mmHg 88%
04:00 +5°C° 0 mm 3 mps 734 mmHg 88%
05:00 +4°C° 0 mm 3 mps 734 mmHg 89%
06:00 +7°C° 0 mm 3 mps 735 mmHg 83%
07:00 +8°C° 0 mm 3 mps 735 mmHg 77%
08:00 +10°C° 0 mm 3 mps 735 mmHg 71%
09:00 +11°C° 0.1 mm 3 mps 736 mmHg 66%
10:00 +13°C° 0.1 mm 4 mps 736 mmHg 61%
11:00 +14°C° 0.1 mm 4 mps 736 mmHg 55%
12:00 +14°C° 0.4 mm 4 mps 736 mmHg 53%
13:00 +15°C° 0.4 mm 4 mps 736 mmHg 51%
14:00 +15°C° 0.4 mm 4 mps 735 mmHg 49%
15:00 +15°C° 0.1 mm 4 mps 735 mmHg 53%
16:00 +14°C° 0.1 mm 3 mps 735 mmHg 56%
17:00 +14°C° 0.1 mm 3 mps 735 mmHg 60%
18:00 +14°C° 0.2 mm 2 mps 736 mmHg 63%
19:00 +13°C° 0.2 mm 2 mps 736 mmHg 66%
20:00 +10°C° 0.2 mm 2 mps 736 mmHg 70%
21:00 +10°C° 0.1 mm 2 mps 736 mmHg 72%
22:00 +9°C° 0.1 mm 2 mps 736 mmHg 74%
23:00 +9°C° 0.1 mm 2 mps 736 mmHg 75%

23 April, Friday

Time Temperature Precipitation Wind Pressure Humidity
00:00 +10°C° 0 mm 1 mps 736 mmHg 76%
01:00 +10°C° 0 mm 1 mps 736 mmHg 77%
02:00 +9°C° 0 mm 1 mps 736 mmHg 78%
03:00 +9°C° 0 mm 1 mps 736 mmHg 81%
04:00 +8°C° 0 mm 1 mps 736 mmHg 83%
05:00 +8°C° 0 mm 1 mps 736 mmHg 85%
06:00 +8°C° 0 mm 2 mps 736 mmHg 80%
07:00 +10°C° 0 mm 2 mps 736 mmHg 75%
08:00 +11°C° 0 mm 3 mps 736 mmHg 70%
09:00 +13°C° 0.1 mm 4 mps 736 mmHg 63%
10:00 +14°C° 0.1 mm 5 mps 736 mmHg 56%
11:00 +16°C° 0.1 mm 6 mps 736 mmHg 49%
12:00 +16°C° 0.1 mm 6 mps 736 mmHg 47%
13:00 +17°C° 0.1 mm 6 mps 736 mmHg 46%
14:00 +17°C° 0.1 mm 6 mps 735 mmHg 44%
15:00 +15°C° 0.5 mm 6 mps 736 mmHg 57%
16:00 +11°C° 0.5 mm 6 mps 736 mmHg 70%
17:00 +9°C° 0.5 mm 7 mps 737 mmHg 83%
18:00 +8°C° 0.1 mm 5 mps 737 mmHg 86%
19:00 +8°C° 0.1 mm 3 mps 737 mmHg 89%
20:00 +8°C° 0.1 mm 1 mps 738 mmHg 92%
21:00 +8°C° 0.1 mm 1 mps 738 mmHg 92%
22:00 +7°C° 0.1 mm 2 mps 738 mmHg 92%
23:00 +7°C° 0.1 mm 2 mps 738 mmHg 92%
Show more

We Need Your Consent

Meteoprog and our Service Providers may store and access personal data such as cookies, device identifiers or other similar technologies on your device and process such data to personalise content and ads, as well as provide social media features and to analyse the traffic.

  • Store and/or access information on your device

    Cookies, device identifiers or other information can be stored or accessed on your device for the purposes indicated above.

  • Personalised ads and content, ad and content measurement, audience insights, and products development

    Ads and content can be personalised based on a profile. More data can be added to better personalise ads and content. Ad and content performance can be measured. Insights about the audience who saw the ads and content can be derived. Such data can be used to develop or improve user’s experience, systems and software.

By clicking ‘I Agree’ you will allow the use of indicated cookies, device identifiers, web beacons or other similar technologies. Your settings can be changed in the browser on your device.

For certain purposes, legitimate interests may be relied on, rather than consent. You can read more about this in our Privacy and Cookie Policy.